Weather in Agoy

Russia / Krasnodar Krai     44°08′48″N   39°02′24″E
temp.,
°C
wind,
m/s
gust,
m/s
humid.,
%
clouds,
%
prec.,
mm/h
press.,
hPa
HPBL,
m
26 february, fri
fri2600:00+4s41089100 0.2 1032608
03:00+3ssw3694100 0.4 1031309
06:00+3ssw3596100 0.1 1031250
09:00+3s3793100 0.2 1030533
12:00+4s4891100 0.1 1030646
15:00+4s4788100 0.1 1028623
18:00+4ssw378899 0.0 1027484
21:00+3s249099 0.0 1027226
27 february, sat
sat2700:00+3s3789100 0.0 1026534
03:00+4s498693 0.0 1024660
06:00+3s498688 0.0 1023630
09:00+4s5108072 0.0 1022741
12:00+6s6117659 0.0 1021781
15:00+6s5107352 0.0 1019766
18:00+4s488055 0.0 1018565
21:00+4s378349 0.0 1017321
28 february, sun
sun2800:00+5s388064 0.0 1017449
03:00+5ssw497970 0.0 1016512
06:00+4sse389096 0.6 1016580
09:00+3sse369798 3.9 1016443
12:00+1nne2298100 6.4 1017131
15:00+2nne2297100 9.6 1017137
18:00+1nne2497100 3.8 1018182
21:00+2nne2496100 4.7 1020244
1 march, mon
mon100:000nne249799 0.0 1021197
03:00−1nne229265 0.0 102256
06:00−1ne22884 0.0 102347
09:00+2ne12792 0.0 1024176
12:00+6wnw11656 0.0 10251010
15:00+4wnw237951 0.2 1025565
18:00+3nne119177 0.3 1026105
21:00+1nne239373 0.3 1027112
2 march, tue
tue200:000ne349616 0.0 1028109
03:000ne349416 0.0 1028149
06:000ne469222 0.0 1029307
09:00+1ne488422 0.0 1029455
12:00+3ne457821 0.0 1029535
15:00+4ne347622 0.0 1029475
18:00+1ne238615 0.0 102895
21:00−1ne22877 0.0 102865